Temperature
20 20 20 20 20 20 20 19 19 19 19 19 19 19 19 19 19 19 19 19 19 19 18 18 18 18 18 18 18 18 18 18 18 17 17 17 17 17 17 17 17 17 17
21 20 20 20 20 19 19 19 19 19 19 19 19 19 19 19 19 19 19 19 18 18 18 18 18 18 18 18 18 18 18 17 17 17 17 17 17 17 17 17 17 17 17
21 20 20 20 20 20 19 19 19 19 19 19 19 19 19 19 19 19 19 18 18 18 18 18 18 18 18 18 18 17 17 17 17 17 17 17 17 17 17 17 17 17 17
21 21 20 20 20 20 19 19 19 19 19 19 19 19 19 18 18 18 18 18 18 18 18 18 18 18 18 17 17 17 17 17 17 17 17 17 17 17 17 17 17 17 17
21 21 20 20 20 20 19 19 19 19 19 19 19 19 18 18 18 18 18 18 18 18 18 18 18 18 17 17 17 17 17 17 17 17 17 17 17 17 17 17 17 17 17
21 21 20 20 20 20 19 19 19 19 19 19 19 18 18 18 18 18 18 18 18 18 18 18 18 18 17 17 17 17 17 17 17 17 17 17 17 17 17 17 17 17 17
21 21 20 20 20 19 19 19 19 19 19 19 19 19 18 18 18 18 18 18 18 18 18 18 18 18 17 17 17 17 17 17 17 17 17 17 17 17 17 17 17 17 17
22 21 20 20 20 19 19 19 19 19 19 19 19 19 18 18 18 18 18 18 18 18 18 18 18 17 17 17 17 17 17 17 17 17 17 17 17 17 17 17 17 17 17
22 21 21 20 20 20 19 19 19 19 19 19 19 19 18 18 18 18 18 18 18 18 18 18 18 17 17 17 17 17 17 17 17 18 17 17 17 17 17 17 17 17 17
21 21 21 20 20 20 20 19 19 19 19 19 19 18 18 18 18 18 18 18 18 18 18 18 18 17 17 17 17 17 17 17 17 18 18 18 17 17 17 17 17 17 17
21 21 21 21 20 20 20 19 19 19 19 19 19 18 18 18 18 18 18 18 18 18 18 18 18 18 17 17 17 17 17 17 17 17 18 18 17 17 17 17 17 17 17
21 21 21 21 20 20 20 19 19 19 19 18 18 18 18 18 18 18 18 18 18 18 18 18 18 18 17 17 17 17 17 17 17 18 17 17 17 17 17 17 17 17 17
21 21 21 21 20 20 20 19 19 19 19 18 18 18 18 18 18 18 18 18 18 18 18 18 18 18 18 17 17 17 17 17 18 18 18 17 17 17 17 17 17 17 17
21 21 21 21 20 20 20 20 19 19 19 18 18 18 18 18 18 18 18 18 18 18 18 18 18 18 18 18 17 17 17 17 18 18 18 17 17 17 17 17 17 17 17
21 21 21 21 20 20 20 19 19 19 19 18 18 18 18 18 18 18 18 18 18 18 18 18 18 18 18 17 17 17 17 17 17 17 17 17 17 17 17 17 17 17 17
21 21 21 20 20 20 19 19 19 19 19 18 18 18 18 18 18 18 18 18 18 18 18 18 18 18 18 17 17 17 17 17 17 17 17 17 17 17 17 17 17 17 17
21 21 20 20 19 19 19 19 19 18 18 18 18 18 18 18 18 18 18 18 18 18 17 17 17 17 17 17 17 17 17 17 17 17 17 17 17 17 17 17 17 17 17
21 21 20 20 19 19 19 18 18 18 18 18 18 18 18 18 18 18 18 18 18 17 18 18 17 17 17 17 17 17 17 17 17 17 17 17 17 17 17 17 17 17 17
21 21 20 20 19 19 19 18 18 18 18 18 18 18 18 18 18 18 18 18 18 17 18 18 18 17 17 17 17 17 17 17 17 17 17 17 17 17 17 17 17 17 17
21 21 20 20 19 19 19 18 18 18 18 18 18 18 18 18 18 18 18 18 18 18 18 17 17 17 17 17 17 17 17 17 17 17 17 17 17 17 17 17 17 17 16
21 20 20 20 19 19 18 18 18 18 18 18 18 18 18 18 18 18 18 18 18 18 18 17 17 17 17 17 17 17 17 17 17 17 17 17 17 17 17 17 16 16 16
21 20 20 20 19 19 19 18 18 18 18 18 18 18 18 17 18 18 18 18 18 18 18 17 17 17 17 17 17 17 17 17 17 17 17 17 17 17 17 17 17 17 16
20 20 20 19 19 19 18 18 18 17 17 17 17 17 17 17 18 18 18 18 18 18 18 18 17 17 17 17 17 17 17 17 17 17 17 17 17 17 17 17 17 17 16
20 20 19 19 19 19 18 18 18 18 18 18 18 17 17 17 17 17 18 18 18 17 17 18 17 17 17 17 17 17 17 17 17 17 17 17 17 17 17 17 17 17 17
20 20 19 19 19 18 18 18 18 18 18 18 17 17 17 17 17 17 17 18 18 17 17 17 17 17 17 17 17 17 17 17 17 17 18 18 17 17 17 17 17 17 17
20 20 19 19 18 18 18 18 18 18 18 17 17 17 17 17 17 17 17 17 17 17 17 17 17 17 17 17 17 17 17 17 18 18 18 18 18 18 18 17 17 17 17
Wind_Speed
8 13 20 19 19 19 19 19 18 18 19 19 19 20 20 19 19 19 18 18 17 17 17 17 18 18 18 18 19 19 19 19 19 19 19 19 19 19 20 20 19 18 20
13 17 21 20 20 20 19 18 18 18 18 18 18 18 18 18 18 18 17 17 17 17 17 17 17 17 18 18 18 18 19 19 19 19 18 18 18 18 19 19 18 17 19
16 18 21 21 21 20 19 19 18 18 18 17 17 17 17 17 17 17 17 17 16 16 16 16 16 17 17 17 17 17 18 19 19 19 17 16 17 18 18 19 19 19 19
17 18 20 22 21 21 20 19 18 17 17 17 17 17 17 17 17 17 17 16 16 16 16 16 16 16 16 15 16 16 17 17 18 17 14 14 15 17 18 18 18 18 18
15 18 21 23 22 21 20 19 18 17 17 16 16 16 16 16 16 17 16 16 16 15 15 15 14 14 14 14 14 14 14 15 17 15 14 14 15 17 17 17 17 17 17
13 17 21 23 22 21 20 19 18 17 17 16 16 16 16 16 16 16 16 15 15 14 14 14 13 13 13 12 12 12 13 15 16 14 14 14 14 16 17 17 17 16 16
13 15 20 22 22 21 20 19 19 18 17 16 16 16 15 16 16 16 16 15 14 14 13 12 12 12 11 11 11 12 13 15 14 13 13 13 14 16 16 16 16 16 15
16 15 19 22 21 20 20 19 18 18 17 16 16 16 15 15 15 15 15 14 14 13 12 11 11 10 10 10 11 12 14 15 14 13 13 13 15 15 15 15 15 15 15
15 14 15 18 19 20 19 19 18 17 17 16 16 16 15 15 15 14 14 14 13 12 11 10 9 9 9 9 10 11 13 15 14 13 13 13 15 15 14 14 14 14 14
12 11 11 14 16 16 17 18 17 17 16 16 16 15 15 15 14 14 13 13 12 11 10 9 8 7 8 8 9 12 14 14 12 12 12 13 15 14 14 13 13 13 13
13 10 10 11 13 14 15 16 16 16 16 15 15 15 14 13 13 12 12 12 11 10 9 7 6 5 6 7 8 11 12 11 12 11 11 14 15 14 14 13 13 12 12
15 12 10 10 11 13 13 14 13 13 13 12 12 12 11 12 11 11 12 12 11 9 8 6 5 4 4 4 7 10 9 11 11 11 11 14 14 14 13 12 12 12 12
17 16 13 11 11 11 8 11 10 10 11 11 11 11 10 9 8 9 9 8 8 7 5 4 3 2 1 2 4 8 9 9 9 10 12 14 14 13 13 12 12 11 11
17 16 14 13 11 10 11 9 9 8 8 8 11 12 9 7 6 7 6 6 6 5 4 3 2 2 1 2 5 8 9 9 10 10 12 14 13 13 12 12 11 11 11
15 15 15 13 12 10 10 8 9 8 8 10 11 11 11 7 5 6 6 6 6 6 5 4 4 2 2 3 5 9 10 11 11 11 11 13 13 12 12 12 11 11 11
16 16 15 13 11 10 8 6 7 9 10 10 10 10 12 10 8 6 5 5 6 6 7 6 5 3 3 4 5 8 10 11 11 11 11 13 13 12 12 11 11 11 11
16 15 15 14 12 12 9 8 8 10 10 8 9 11 12 11 10 8 5 4 5 6 6 4 3 3 3 3 4 7 9 10 11 12 12 12 12 12 12 12 11 11 11
14 14 15 14 13 11 9 7 7 9 9 8 10 11 11 11 11 8 4 4 5 6 5 3 2 2 2 3 4 4 5 7 10 12 12 12 12 11 12 12 12 12 11
14 14 13 11 12 11 9 7 7 7 7 8 9 9 10 10 10 8 5 5 6 4 3 3 2 3 3 3 3 3 3 4 6 10 10 12 13 12 13 13 13 13 13
12 12 12 11 11 10 8 6 5 5 4 6 7 8 9 10 10 8 5 5 6 3 3 3 3 2 3 3 2 2 1 3 4 5 8 11 12 13 14 13 13 13 14
11 11 11 11 10 9 7 6 6 5 4 4 5 9 10 10 10 8 5 4 4 4 4 5 3 3 2 2 3 2 3 1 2 4 5 6 9 13 14 14 14 14 13
11 11 11 11 11 10 8 6 4 4 4 4 4 7 9 9 10 9 6 5 4 4 4 4 4 3 1 2 3 2 1 3 3 3 3 5 7 9 11 14 14 15 15
11 12 11 11 11 9 8 6 4 4 3 3 3 4 6 9 9 9 8 6 5 5 5 5 5 5 3 1 2 4 3 4 3 3 3 4 5 5 7 12 14 16 16
11 10 10 10 10 9 10 9 9 7 6 6 5 4 5 7 8 9 8 7 5 5 5 5 5 4 4 2 1 1 3 4 3 1 3 2 4 6 7 8 11 15 16
10 10 9 9 9 9 9 10 9 6 5 4 4 5 6 5 7 9 8 7 6 5 6 5 5 4 4 4 3 2 1 1 2 3 2 3 2 3 5 6 8 11 15
9 9 9 9 9 9 9 9 9 9 7 6 6 6 5 4 4 6 7 6 6 5 6 5 5 6 4 4 3 3 3 2 3 3 3 3 3 4 4 4 5 9 13
Wind_Direction
138 143 137 131 125 119 114 110 107 104 101 99 98 99 100 102 103 105 106 107 107 106 106 105 106 107 108 109 111 113 114 113 112 110 111 112 112 112 112 111 109 110 112
142 143 138 134 129 124 119 115 112 109 106 103 102 103 104 106 106 107 108 108 108 107 107 107 107 107 108 110 113 115 116 114 111 109 109 110 112 112 113 113 112 114 113
136 139 138 136 132 128 124 121 117 114 111 109 108 108 108 109 110 109 110 110 109 108 108 108 108 107 108 110 113 116 116 114 111 107 105 104 110 113 114 114 114 113 112
135 137 139 137 134 131 128 125 122 119 116 114 113 113 112 112 112 111 111 111 111 110 109 109 108 108 108 109 112 115 117 116 114 109 104 107 111 113 114 114 114 115 114
133 137 141 139 137 135 133 130 127 124 121 119 118 116 115 115 115 114 113 112 113 113 112 112 110 108 108 108 109 112 115 115 112 107 102 104 111 117 116 116 117 117 117
131 137 143 141 139 138 137 134 131 129 127 124 121 119 119 119 118 116 115 115 115 114 114 113 111 108 107 106 106 108 117 117 113 108 106 108 114 119 119 119 118 118 117
134 138 143 142 142 141 140 138 136 133 131 129 126 124 122 121 120 120 118 118 118 117 116 113 110 107 105 103 101 105 117 124 118 114 112 113 118 121 120 120 120 119 120
139 139 143 144 144 144 143 142 140 138 136 134 132 130 128 126 124 124 123 123 122 121 119 116 110 105 102 98 96 104 119 127 125 122 118 119 123 123 122 122 122 121 122
140 140 142 147 147 147 146 146 145 144 142 139 137 135 133 131 130 130 129 129 127 125 123 119 113 107 101 94 90 106 125 128 127 129 127 127 129 128 128 126 127 126 125
141 143 141 144 147 149 149 150 149 148 146 144 142 140 139 138 137 136 135 134 133 131 129 124 118 110 100 91 91 106 118 124 126 126 129 136 135 133 133 132 131 130 129
148 149 147 146 149 149 150 154 154 152 151 149 148 146 141 138 140 141 144 142 140 140 139 135 128 114 94 84 90 106 114 122 127 130 137 142 141 137 136 135 136 135 133
157 160 160 155 154 155 159 153 154 153 152 150 150 146 144 146 150 151 154 151 149 148 149 148 139 115 94 80 91 105 117 127 132 139 145 148 146 143 141 140 140 140 138
163 165 166 167 164 164 155 155 155 154 156 158 158 157 156 156 157 155 156 155 153 155 156 158 144 137 120 97 113 120 131 136 140 146 154 155 152 149 147 147 146 146 146
167 169 167 169 169 167 160 163 161 162 168 168 169 168 159 153 154 159 159 162 165 172 178 180 187 212 223 156 136 138 142 142 146 149 160 161 158 155 154 154 154 154 154
168 169 171 173 169 166 163 170 169 171 175 175 172 172 164 160 163 168 172 179 188 189 187 194 211 214 187 150 143 144 147 150 153 158 166 168 165 164 163 163 162 162 163
171 170 170 171 167 164 169 169 167 174 174 169 170 173 171 169 171 169 169 177 187 190 189 189 195 185 161 142 141 147 148 155 161 166 169 173 173 172 171 172 173 174 173
170 167 168 168 167 165 167 171 167 171 170 166 170 173 173 172 172 167 166 173 183 183 171 160 166 139 133 134 134 146 154 163 168 173 175 177 180 181 182 183 183 184 184
161 162 167 171 167 165 161 160 163 163 165 166 168 175 175 173 172 165 161 172 177 167 158 144 131 115 116 130 137 153 155 167 174 177 180 184 186 189 194 194 193 194 194
160 160 162 161 164 163 155 151 158 157 161 168 166 171 173 171 171 164 159 168 165 153 153 157 133 134 138 141 146 152 154 165 176 180 185 193 195 198 199 203 202 202 204
155 156 158 156 158 155 146 140 144 148 155 165 169 175 175 175 174 165 162 164 152 138 142 139 137 127 141 151 146 137 165 181 181 187 194 197 201 204 206 206 207 210 214
153 156 159 160 160 155 155 160 158 165 165 165 179 181 180 181 177 168 167 163 151 153 162 150 134 127 124 124 90 40 349 319 211 207 200 194 203 207 207 210 210 212 219
162 163 162 164 164 165 166 163 157 156 161 168 182 188 189 185 178 177 168 168 160 156 155 146 133 129 138 140 132 113 11 338 311 239 214 201 206 207 206 212 213 216 219
165 169 168 165 164 164 159 145 133 120 124 162 189 190 195 188 182 176 174 170 166 163 171 171 157 148 160 175 154 148 156 216 272 302 251 220 203 199 207 208 211 218 222
171 166 160 162 163 163 161 162 164 171 180 194 188 187 193 190 183 180 177 175 175 173 176 184 172 161 154 171 197 186 175 163 164 267 307 272 230 212 207 212 214 217 220
167 164 162 161 167 169 170 171 174 182 187 182 176 183 197 200 190 186 181 177 176 179 183 181 167 166 162 166 175 177 162 154 152 158 240 283 281 238 216 215 215 214 216
161 161 163 168 175 177 175 177 181 182 182 178 185 191 200 201 200 193 183 180 180 182 186 186 179 172 173 168 172 169 166 170 189 175 200 234 245 261 237 222 217 217 217
Height
1534 1536 1538 1539 1540 1541 1542 1542 1543 1544 1544 1545 1546 1546 1547 1547 1548 1549 1549 1550 1550 1551 1552 1552 1553 1553 1554 1554 1555 1556 1557 1558 1559 1560 1560 1561 1562 1562 1563 1564 1565 1565 1566
1532 1536 1538 1540 1541 1542 1543 1544 1545 1545 1546 1547 1547 1548 1549 1549 1550 1550 1551 1552 1552 1553 1554 1554 1555 1555 1556 1556 1557 1558 1559 1560 1561 1562 1562 1563 1564 1565 1565 1566 1567 1568 1569
1533 1536 1539 1540 1542 1543 1544 1545 1546 1547 1548 1548 1549 1550 1550 1551 1552 1552 1553 1553 1554 1555 1556 1556 1557 1557 1558 1559 1560 1561 1562 1562 1563 1564 1565 1565 1566 1567 1567 1568 1569 1570 1571
1534 1536 1539 1541 1542 1544 1545 1547 1548 1548 1549 1550 1551 1551 1552 1553 1553 1554 1555 1555 1556 1557 1558 1558 1559 1560 1560 1561 1562 1563 1564 1565 1565 1566 1567 1567 1568 1569 1570 1570 1571 1572 1573
1535 1537 1539 1541 1543 1544 1546 1547 1549 1550 1551 1551 1552 1553 1553 1554 1555 1556 1556 1557 1558 1559 1560 1561 1561 1562 1563 1564 1564 1565 1566 1567 1567 1568 1569 1569 1570 1571 1572 1572 1573 1574 1575
1535 1538 1540 1542 1544 1545 1547 1548 1549 1551 1552 1553 1554 1554 1555 1556 1557 1557 1558 1559 1560 1561 1562 1563 1564 1565 1566 1566 1567 1568 1568 1569 1569 1570 1571 1571 1572 1573 1574 1574 1575 1576 1577
1536 1539 1541 1543 1545 1546 1548 1549 1550 1552 1553 1554 1555 1556 1557 1557 1558 1559 1560 1561 1562 1563 1564 1565 1566 1567 1568 1569 1569 1570 1570 1571 1572 1572 1573 1574 1574 1575 1575 1576 1577 1578 1579
1536 1539 1541 1544 1545 1547 1549 1550 1551 1553 1554 1555 1556 1557 1558 1559 1560 1561 1562 1563 1564 1565 1566 1567 1568 1569 1570 1571 1572 1572 1572 1573 1574 1574 1575 1576 1576 1577 1577 1578 1579 1580 1581
1538 1539 1542 1544 1546 1548 1550 1551 1552 1554 1555 1556 1557 1558 1559 1560 1562 1563 1564 1565 1566 1567 1568 1569 1570 1572 1573 1573 1574 1574 1574 1575 1576 1576 1577 1577 1578 1579 1579 1580 1581 1582 1582
1539 1540 1542 1544 1546 1548 1550 1552 1553 1555 1556 1557 1558 1559 1561 1562 1563 1564 1565 1566 1567 1569 1570 1571 1572 1573 1574 1575 1576 1576 1577 1577 1578 1579 1579 1579 1580 1581 1581 1582 1583 1583 1584
1539 1540 1542 1544 1546 1548 1550 1552 1554 1556 1557 1558 1559 1560 1562 1563 1564 1566 1567 1568 1569 1570 1572 1573 1574 1575 1576 1577 1577 1578 1579 1579 1580 1581 1581 1581 1582 1582 1583 1584 1584 1585 1586
1537 1540 1542 1544 1546 1548 1550 1551 1554 1556 1557 1559 1560 1561 1563 1564 1566 1567 1568 1570 1571 1572 1573 1574 1576 1577 1578 1579 1579 1580 1580 1581 1582 1582 1583 1583 1583 1584 1584 1585 1586 1586 1587
1536 1539 1541 1544 1546 1547 1549 1551 1553 1555 1557 1559 1561 1562 1564 1565 1567 1568 1570 1571 1572 1573 1575 1576 1577 1578 1579 1580 1581 1581 1582 1582 1583 1583 1584 1584 1585 1585 1586 1586 1587 1588 1589
1535 1537 1540 1543 1545 1547 1549 1551 1553 1555 1557 1559 1561 1563 1564 1566 1567 1569 1571 1572 1573 1575 1576 1577 1578 1579 1580 1581 1582 1582 1583 1583 1584 1585 1585 1585 1586 1586 1587 1587 1588 1589 1590
1534 1536 1539 1542 1544 1546 1549 1551 1553 1555 1557 1559 1561 1563 1565 1566 1568 1570 1571 1573 1574 1575 1577 1578 1579 1580 1581 1582 1582 1583 1584 1584 1585 1586 1586 1586 1587 1587 1588 1588 1589 1589 1590
1531 1534 1538 1540 1543 1546 1548 1550 1552 1555 1557 1559 1561 1563 1565 1567 1568 1570 1571 1573 1574 1576 1577 1578 1579 1581 1581 1582 1583 1584 1584 1585 1586 1586 1587 1587 1588 1588 1588 1589 1589 1590 1591
1530 1533 1536 1539 1542 1545 1547 1550 1552 1554 1557 1559 1561 1563 1565 1567 1568 1570 1572 1573 1574 1576 1577 1579 1580 1581 1582 1583 1583 1584 1585 1586 1586 1587 1587 1587 1588 1588 1589 1589 1590 1590 1591
1528 1531 1534 1537 1540 1543 1546 1548 1551 1554 1556 1558 1560 1562 1564 1566 1568 1570 1572 1573 1574 1575 1577 1578 1580 1581 1582 1583 1584 1584 1585 1586 1586 1587 1587 1588 1588 1588 1589 1589 1590 1590 1591
1528 1530 1532 1535 1538 1542 1544 1547 1550 1552 1555 1557 1559 1561 1563 1565 1567 1570 1571 1573 1574 1575 1577 1578 1579 1580 1582 1583 1584 1584 1585 1585 1586 1587 1587 1588 1588 1588 1589 1589 1589 1590 1590
1527 1529 1531 1534 1537 1540 1543 1545 1548 1551 1553 1555 1558 1560 1562 1564 1566 1569 1570 1572 1573 1575 1576 1577 1579 1580 1581 1582 1583 1584 1585 1585 1585 1586 1587 1587 1588 1588 1588 1589 1589 1589 1589
1526 1528 1530 1532 1535 1538 1540 1543 1545 1548 1551 1554 1556 1559 1561 1563 1565 1567 1569 1570 1572 1574 1575 1576 1578 1579 1580 1582 1583 1583 1584 1584 1585 1585 1586 1586 1587 1587 1587 1588 1588 1588 1589
1523 1525 1528 1530 1533 1535 1538 1541 1544 1547 1550 1552 1555 1557 1559 1561 1564 1566 1567 1569 1571 1573 1574 1575 1576 1578 1579 1581 1582 1582 1583 1584 1584 1584 1584 1585 1585 1586 1586 1587 1587 1587 1588
1521 1523 1526 1528 1530 1533 1537 1540 1542 1545 1548 1550 1553 1555 1557 1560 1562 1563 1566 1568 1569 1571 1572 1574 1575 1576 1578 1579 1580 1581 1581 1581 1582 1582 1582 1583 1584 1584 1585 1585 1586 1586 1586
1520 1522 1525 1527 1529 1532 1534 1537 1540 1542 1544 1547 1549 1552 1555 1558 1560 1561 1564 1566 1567 1569 1570 1572 1573 1575 1576 1577 1578 1579 1580 1580 1580 1580 1581 1581 1582 1582 1583 1583 1584 1584 1584
1520 1522 1524 1526 1528 1530 1533 1535 1538 1540 1543 1545 1548 1550 1552 1555 1557 1559 1561 1563 1565 1566 1568 1570 1571 1573 1574 1575 1576 1577 1578 1578 1579 1579 1579 1580 1580 1580 1581 1581 1582 1582 1582
1519 1521 1523 1525 1527 1529 1531 1533 1536 1538 1541 1543 1545 1547 1549 1552 1554 1556 1558 1560 1562 1564 1566 1567 1569 1570 1572 1573 1574 1575 1576 1576 1577 1577 1577 1577 1577 1578 1579 1579 1579 1580 1580